Regional Weather Roundup
Issued by NWS Newport/Morehead, NC

Current Version | Previous Version | Graphics & Text | Print | Product List | Glossary Off
Versions: 1 2 3 4 5 6 7 8 9 10 11 12 13 14 15 16 17 18 19 20 21 22 23 24 25 26 27 28 29 30 31 32 33 34 35 36 37 38 39 40 41 42 43 44 45 46 47 48 49 50

261
ASUS42 KMHX 230813
RWRMHX
WEATHER ROUNDUP FOR EASTERN NORTH CAROLINA
NATIONAL WEATHER SERVICE NEWPORT/MOREHEAD CITY NC
400 AM EDT SUN APR 23 2017

NOTE: "FAIR" INDICATES FEW OR NO CLOUDS BELOW 12,000 FEET
WITH NO SIGNIFICANT WEATHER AND/OR OBSTRUCTIONS TO VISIBILITY

NCZ015>017-031-032-045>047-102-103-230900-
NORTH COAST

CITY           SKY/WX    TMP DP  RH WIND       PRES   REMARKS
EDENTON        LGT RAIN  56  53  88 CALM      29.98R
ELIZABETH CITY LGT RAIN  55  54  96 N14       29.97R
KITTY HAWK     CLOUDY    55  55 100 N13       29.94R
MANTEO         CLOUDY    55  53  93 NE17G24   29.95R

$$

NCZ045>047-081-094-103-104-230900-
CENTRAL COAST

CITY           SKY/WX    TMP DP  RH WIND       PRES   REMARKS
FRISCO         CLOUDY    62  59  90 N10       29.91R

$$

NCZ095-097-098-100-101-230900-
SOUTHERN COAST

CITY           SKY/WX    TMP DP  RH WIND       PRES   REMARKS
BEAUFORT       CLOUDY    62  62 100 N7        29.91R
CEDAR ISLAND   NOT AVBL
JACKSONVILLE   CLOUDY    62  60  93 NE12      29.91R
PINEY ISLAND   CLOUDY   N/A N/A N/A N10       29.91S
WILMINGTON     CLOUDY    69  66  90 N3        29.89S


$$

NCZ011>013-027>030-043-044-078>080-089-090>093-098-230900-
COASTAL PLAIN

CITY           SKY/WX    TMP DP  RH WIND       PRES   REMARKS
AHOSKIE          N/A     55  54  97 NE3       29.99R
CLINTON        CLOUDY    59  58  96 NE8       29.94R
ELIZABETHTOWN  MOCLDY    63  61  94 CALM      29.91R
GOLDSBORO      CLOUDY    57  57 100 NE12      29.94R
GREENVILLE     CLOUDY    55  54  94 NE10      29.99R
HAVELOCK       NOT AVBL
KENANSVILLE    CLOUDY    59  55  88 N6        29.94R
KINSTON        CLOUDY    57  55  95 N12G20    29.96R
NEW BERN       CLOUDY    59  58  96 N7        29.94S
RICHLANDS      CLOUDY    59  58  96 N8        29.93R
ROCKY MOUNT    LGT RAIN  56  55  97 N9        29.97F
WASHINGTON     LGT RAIN  55  54  97 N7        29.97R
WHITEVILLE     CLOUDY    67  63  87 CALM      29.88S

$$

AMZ130-135-150-152-154-156-158-170-250-252-270-ANZ085-086-088-633-658-670-230900-
MARINE OBSERVATIONS

STATION/POSITION TIME  TEMP    WIND        PRES    WAVE   SWELL
                       AIR SEA DIR/SP/G            HT/PER HT/PER
                 (UTC) (F)     (DEG/KT/KT) (MB)    (FT/S) (FT/S)
CHESAPEAKE LIGHT NOT AVBL
64 E VA BEACH    0750   54 56   10/ 19/ 23 1013.7    6/11   3/11
DUCK             0748   56 62   20/ 21/ 25 1013.4
2 E DUCK         0800      60                N/A     6/ 5   2/11
OREGON INLET     0742   55 72  360/ 12/ 18 1013.6
13E OREGON INLT  0748      59                N/A     6/ 7   5/ 7
HATTERAS CG      0748   62 71  350/ 16/ 19 1012.5
DIAMOND BUOY     0750   64 75  350/ 12/ 16 1011.9    4/12   3/12
CAPE LOOKOUT     0800   64     350/ 11/ 13 1012.1
BEAUFORT LAB     0748   63 67  360/ 10/ 12 1011.9
30 SE NEW RVR IN 0708   71     300/  6/  8 1012.3
30 SE NEW RVR IN 0743      71                N/A     5/ 6   2/13
27 SE WRIGHTSVLE 0708   72 70  210/ 12/ 17 1011.0
5 SE WRIGHTSVLE  0708   70 68  320/  4/  8 1011.9
225 S CAPE HAT   0750   72 76  200/ 14/ 16 1014.3    5/13   3/13
41 SE CHARLESTON 0750   75 74  200/ 16/ 19 1011.5    3/ 5   2/12

$$




USA.gov is the U.S. government's official web portal to all federal, state and local government web resources and services.